Weather History for Troy, AL

Change the Weather History Date:

Saturday, July 27, 2013

  Actual Average Record
Temperature  
Mean Temperature 79 °F 81 °F  
Max Temperature 88 °F 92 °F 97 °F (2014)
Min Temperature 70 °F 70 °F 69 °F (2000)
Cooling Degree Days 14 16  
Month to date cooling degree days 382 425  
Year to date cooling degree days 1119 1100  
Since 1 June cooling degree days 827 813  
Growing Degree Days 28 (Base 50)    
Moisture  
Dew Point 69 °F    
Average Humidity 72    
Maximum Humidity 93    
Minimum Humidity 51    
Precipitation  
Precipitation 0.66 in 0.19 in 0.93 in (2012)
Month to date precipitation 11.39 4.98  
Year to date precipitation 40.50 32.64  
Sea Level Pressure  
Sea Level Pressure 29.97 in    
Wind  
Wind Speed 1 mph (WSW)    
Max Wind Speed 16 mph    
Max Gust Speed 23 mph    
Visibility 4 miles    
Events Fog , Rain , Thunderstorm    
T = Trace of Precipitation, MM = Missing Value Source: NWS Daily Summary

Daily Weather History Graph

Daily Weather History Graph

Search for Another Location

Airport:

Trip Planner

Search our weather history database for the weather conditions in past years. The results will help you decide how hot, cold, wet, or windy it might be!

Date:

Astronomy

Jul. 27, 2013 Rise Set
Actual Time 5:56 AM CDT 7:44 PM CDT
Civil Twilight 5:29 AM CDT 8:11 PM CDT
Nautical Twilight 4:57 AM CDT 8:43 PM CDT
Astronomical Twilight 4:22 AM CDT 9:17 PM CDT
Moon 10:57 PM CDT (7/27) 11:11 AM CDT (7/27)
Length of Visible Light 14h 41m
Length of Day
13h 47m
Waning Gibbous, 70% of the Moon is Illuminated
Jul 27
Waning Gibbous
Jul 29
Last Quarter
Aug 6
New
Aug 14
First Quarter
Aug 20
Full

Hourly Weather History & Observations

Time (CDT) Temp. Heat Index Dew Point Humidity Pressure Visibility Wind Dir Wind Speed Gust Speed Precip Events Conditions
12:53 AM 73.0 °F - 69.1 °F 87% 29.97 in 6.0 mi Calm Calm - N/A   Clear
1:53 AM 73.0 °F - 69.1 °F 87% 29.96 in 7.0 mi Calm Calm - N/A   Clear
2:53 AM 71.1 °F - 68.0 °F 90% 29.96 in 4.0 mi Calm Calm - N/A   Scattered Clouds
3:53 AM 71.1 °F - 68.0 °F 90% 29.96 in 5.0 mi Calm Calm - N/A   Clear
4:53 AM 70.0 °F - 66.9 °F 90% 29.96 in 4.0 mi Calm Calm - N/A   Clear
5:53 AM 72.0 °F - 68.0 °F 87% 29.96 in 6.0 mi Calm Calm - N/A   Clear
6:53 AM 73.0 °F - 69.1 °F 87% 29.98 in 5.0 mi Calm Calm - 0.01 in   Clear
7:53 AM 73.9 °F - 70.0 °F 87% 29.98 in 6.0 mi Calm Calm - N/A   Clear
8:53 AM 77.0 °F - 70.0 °F 79% 29.99 in 8.0 mi Calm Calm - N/A   Clear
9:53 AM 79.0 °F - 71.1 °F 77% 29.98 in 9.0 mi Calm Calm - N/A   Clear
10:53 AM 82.0 °F 85.9 °F 70.0 °F 67% 29.98 in 10.0 mi Calm Calm - N/A   Clear
11:53 AM 84.0 °F 86.5 °F 66.9 °F 56% 29.97 in 10.0 mi WNW 3.5 mph - N/A   Clear
12:53 PM 84.9 °F 87.1 °F 66.0 °F 53% 29.96 in 10.0 mi Calm Calm - N/A   Clear
1:53 PM 86.0 °F 88.2 °F 66.0 °F 51% 29.94 in 10.0 mi WSW 3.5 mph - N/A   Clear
2:53 PM 84.9 °F 88.2 °F 68.0 °F 57% 29.94 in 10.0 mi Calm Calm - N/A   Clear
3:48 PM 82.4 °F 87.2 °F 71.6 °F 70% 29.96 in 10.0 mi SW 12.7 mph 17.3 mph N/A Thunderstorm Mostly Cloudy
3:53 PM 78.1 °F - 70.0 °F 76% 29.95 in 10.0 mi WSW 10.4 mph 19.6 mph N/A Thunderstorm Mostly Cloudy
4:10 PM 75.2 °F - 69.8 °F 83% 29.98 in 1.8 mi West 15.0 mph 23.0 mph 0.10 in Rain , Thunderstorm Light Thunderstorms and Rain
4:12 PM 73.4 °F - 69.8 °F 88% 29.98 in 1.2 mi West 12.7 mph 23.0 mph 0.14 in Rain , Thunderstorm Heavy Thunderstorms and Rain
4:15 PM 73.4 °F - 69.8 °F 88% 29.98 in 0.5 mi West 13.8 mph 23.0 mph 0.30 in Fog , Rain , Thunderstorm Heavy Thunderstorms and Rain
4:28 PM 71.6 °F - 66.2 °F 83% 29.99 in 0.5 mi WNW 9.2 mph - 0.57 in Fog , Rain , Thunderstorm Heavy Thunderstorms and Rain
4:37 PM 69.8 °F - 66.2 °F 88% 29.98 in 1.0 mi Calm Calm - 0.64 in Rain , Thunderstorm Heavy Thunderstorms and Rain
4:40 PM 69.8 °F - 66.2 °F 88% 29.98 in 1.5 mi Calm Calm - 0.64 in Rain , Thunderstorm Heavy Thunderstorms and Rain
4:43 PM 69.8 °F - 66.2 °F 88% 29.98 in 2.0 mi Calm Calm - 0.64 in Rain , Thunderstorm Thunderstorms and Rain
4:53 PM 71.1 °F - 66.0 °F 84% 29.96 in 2.5 mi Calm Calm - 0.66 in Rain , Thunderstorm Thunderstorms and Rain
5:03 PM 71.6 °F - 66.2 °F 83% 29.97 in 5.0 mi Calm Calm - 0.00 in Rain Light Rain
5:53 PM 73.0 °F - 69.1 °F 87% 29.94 in 6.0 mi East 4.6 mph - 0.00 in   Mostly Cloudy
6:53 PM 73.9 °F - 69.1 °F 85% 29.94 in 7.0 mi Calm Calm - N/A   Overcast
7:53 PM 73.9 °F - 71.1 °F 91% 29.94 in 6.0 mi Calm Calm - N/A   Mostly Cloudy
8:53 PM 73.0 °F - 70.0 °F 90% 29.95 in 3.0 mi Calm Calm - N/A   Scattered Clouds
9:11 PM 71.6 °F - 69.8 °F 94% 29.98 in 2.0 mi South 3.5 mph - N/A   Clear
9:18 PM 71.6 °F - 69.8 °F 94% 29.98 in 1.8 mi Calm Calm - N/A   Clear
9:26 PM 71.6 °F - 69.8 °F 94% 29.98 in 2.0 mi Calm Calm - N/A   Clear
9:33 PM 71.6 °F - 69.8 °F 94% 29.98 in 1.5 mi Calm Calm - N/A   Clear
9:35 PM 71.6 °F - 69.8 °F 94% 29.98 in 1.0 mi Calm Calm - N/A   Clear
9:39 PM 71.6 °F - 69.8 °F 94% 29.98 in 0.5 mi Calm Calm - N/A Fog Fog
9:45 PM 71.6 °F - 69.8 °F 94% 29.99 in 1.0 mi Calm Calm - N/A   Clear
9:47 PM 71.6 °F - 69.8 °F 94% 29.99 in 1.5 mi Calm Calm - N/A   Clear
9:49 PM 71.6 °F - 69.8 °F 94% 29.99 in 2.0 mi Calm Calm - N/A   Clear
9:51 PM 71.6 °F - 69.8 °F 94% 29.99 in 1.2 mi Calm Calm - N/A   Clear
9:53 PM 72.0 °F - 69.1 °F 91% 29.97 in 1.0 mi Calm Calm - N/A   Clear
9:56 PM 71.6 °F - 69.8 °F 94% 29.98 in 0.5 mi Calm Calm - N/A Fog Fog
10:13 PM 71.6 °F - 68.0 °F 88% 29.98 in 1.0 mi Calm Calm - N/A   Clear
10:16 PM 71.6 °F - 69.8 °F 94% 29.98 in 1.5 mi Calm Calm - N/A   Clear
10:21 PM 71.6 °F - 69.8 °F 94% 29.98 in 1.0 mi Calm Calm - N/A   Clear
10:25 PM 71.6 °F - 69.8 °F 94% 29.97 in 0.5 mi Calm Calm - N/A Fog Fog
10:36 PM 71.6 °F - 69.8 °F 94% 29.97 in 1.0 mi Calm Calm - N/A   Clear
10:39 PM 71.6 °F - 69.8 °F 94% 29.97 in 1.5 mi Calm Calm - N/A   Clear
10:41 PM 71.6 °F - 69.8 °F 94% 29.97 in 2.0 mi Calm Calm - N/A   Clear
10:51 PM 71.6 °F - 69.8 °F 94% 29.97 in 5.0 mi Calm Calm - N/A   Clear
10:53 PM 71.1 °F - 69.1 °F 93% 29.96 in 5.0 mi Calm Calm - N/A   Clear
11:53 PM 71.1 °F - 68.0 °F 90% 29.95 in 4.0 mi Calm Calm - N/A   Clear